Darstellungsparameter: Aktuell verwendete Einstellungen:
Skalierung der Graphiken ... ?
xyx+y,   Skalierungsfaktor:      Skalierung: Modus: x, Faktor: 1
Darstellungszeitraum ... ?
Vom - - bis: - -   Zeitraum: 01.10.2010 - 05.10.2010
Min/Max/Avg-Anzeige ... ?
Zeige MMA aktuell
Zeige MMA Monat
Zeige MMA alles
Zeige --A aktuell
Zeige --A Monat
Zeige --A alles
Keine MMA-Anzeige
MMA:
Average (ber die Originaldaten)
MMA-Basis: 01.10.2010 - 05.10.2010
Quicknavigation für Darstellung... ?
Tage:      1T, 2T, 3T, 5T -1T -2T -3T -5T +1T +2T +3T +5T
Wochen: 1W, 2W, 3W -1W -2W -3W +1W +2W +3W
Monate: 1M, 3M, 6M -1M -3M -6M +1M +3M +6M
Jahre:    1J, 3J, 5J, 10J -1J -3J -5J -10J +1J +3J +5J +10J
Nutze für die Darstellung ... ?
Originaldaten oder Mittelwerte auf ...
Stundenbasis Tagesbasis Wochenbasis
Monatsbasis Jahresbasis      Datenbasis: Original-Daten
Darstellen als:
Statistik (Auto) Statistik J:M      Darstellung:
Zur Graphik,    zurück zur Übersicht aller Sensoren.
 
Tabellarische Datenbersicht: ?
 
Sensor: Nr:Datum:Temp:Abs-Feuchte:Windchill:Wind:
Aussen-T/F 1 01-10-2010 00:03:03 12.1 C 10.08 g/m*3 12.1 C 0 km/h
2 01-10-2010 00:15:03 12 C 10.02 g/m*3 12 C 0 km/h
3 01-10-2010 00:27:03 12.1 C 10.08 g/m*3 12.1 C 0 km/h
4 01-10-2010 00:39:03 12.1 C 10.08 g/m*3 12.1 C 0 km/h
5 01-10-2010 00:51:03 11.8 C 10 g/m*3 11.8 C 0 km/h
6 01-10-2010 01:03:03 11.6 C 9.87 g/m*3 11.6 C 0 km/h
7 01-10-2010 01:15:04 11.7 C 9.94 g/m*3 11.7 C 0 km/h
8 01-10-2010 01:27:04 11.6 C 9.87 g/m*3 11.6 C 0 km/h
9 01-10-2010 01:39:04 11.5 C 9.81 g/m*3 11.5 C 0 km/h
10 01-10-2010 01:51:04 11.5 C 9.81 g/m*3 11.5 C 0 km/h
11 01-10-2010 02:03:04 11.5 C 9.81 g/m*3 11.5 C 0 km/h
12 01-10-2010 02:15:04 11.4 C 9.75 g/m*3 11.4 C 0 km/h
13 01-10-2010 02:27:04 11.4 C 9.75 g/m*3 11.4 C 0 km/h
14 01-10-2010 02:39:04 11.4 C 9.75 g/m*3 11.4 C 0 km/h
15 01-10-2010 02:51:04 11.5 C 9.81 g/m*3 11.5 C 0 km/h
16 01-10-2010 03:03:04 11.5 C 9.81 g/m*3 11.5 C 0 km/h
17 01-10-2010 03:15:04 11.5 C 9.81 g/m*3 11.5 C 0 km/h
18 01-10-2010 03:27:04 11.5 C 9.81 g/m*3 11.5 C 0 km/h
19 01-10-2010 03:39:04 11.5 C 9.81 g/m*3 11.5 C 0 km/h
20 01-10-2010 03:51:04 11.8 C 10 g/m*3 11.8 C 0 km/h
21 01-10-2010 04:03:04 11.7 C 9.94 g/m*3 11.7 C 0 km/h
22 01-10-2010 04:15:04 11.7 C 9.94 g/m*3 11.7 C 0 km/h
23 01-10-2010 04:27:04 11.7 C 9.94 g/m*3 11.7 C 0 km/h
24 01-10-2010 04:39:04 11.7 C 9.94 g/m*3 11.7 C 0 km/h
25 01-10-2010 04:51:04 11.7 C 9.94 g/m*3 11.7 C 0 km/h
Sensor: Nr:Datum:Temp:Abs-Feuchte:Windchill:Wind:
Aussen-T/F 26 01-10-2010 05:03:04 11.7 C 9.94 g/m*3 11.7 C 0 km/h
27 01-10-2010 05:15:04 11.7 C 9.94 g/m*3 11.7 C 0 km/h
28 01-10-2010 05:27:04 11.7 C 9.94 g/m*3 11.7 C 0 km/h
29 01-10-2010 05:39:04 11.5 C 9.81 g/m*3 11.5 C 0 km/h
30 01-10-2010 05:51:05 11.5 C 9.81 g/m*3 11.5 C 0 km/h
31 01-10-2010 06:03:05 11.4 C 9.75 g/m*3 11.4 C 0 km/h
32 01-10-2010 06:15:05 11.4 C 9.75 g/m*3 11.4 C 0 km/h
33 01-10-2010 06:27:05 11.4 C 9.75 g/m*3 11.4 C 0 km/h
34 01-10-2010 06:39:05 11.4 C 9.75 g/m*3 11.4 C 0 km/h
35 01-10-2010 06:51:05 11.4 C 9.75 g/m*3 11.4 C 0 km/h
36 01-10-2010 07:03:05 11.3 C 9.69 g/m*3 11.3 C 0 km/h
37 01-10-2010 07:15:02 11.3 C 9.69 g/m*3 11.3 C 0 km/h
38 01-10-2010 07:27:02 11 C 9.51 g/m*3 11 C 0 km/h
39 01-10-2010 07:39:02 10.8 C 9.39 g/m*3 10.8 C 0 km/h
40 01-10-2010 07:51:02 10.6 C 9.27 g/m*3 10.6 C 0 km/h
41 01-10-2010 08:03:02 10.4 C 9.16 g/m*3 10.4 C 0 km/h
42 01-10-2010 08:15:02 10.3 C 9.1 g/m*3 10.3 C 0 km/h
43 01-10-2010 08:27:02 10.2 C 9.04 g/m*3 10.2 C 0 km/h
44 01-10-2010 08:39:02 10.2 C 9.04 g/m*3 10.2 C 0 km/h
45 01-10-2010 08:51:02 10.4 C 9.16 g/m*3 10.4 C 0 km/h
46 01-10-2010 09:03:02 10.7 C 9.33 g/m*3 10.7 C 0 km/h
47 01-10-2010 09:15:01 11.1 C 9.57 g/m*3 11.1 C 0 km/h
48 01-10-2010 09:27:01 11.3 C 9.69 g/m*3 11.3 C 0 km/h
49 01-10-2010 09:39:02 11.4 C 9.75 g/m*3 11.4 C 0 km/h
50 01-10-2010 09:51:02 11.7 C 9.94 g/m*3 11.7 C 0 km/h
Sensor: Nr:Datum:Temp:Abs-Feuchte:Windchill:Wind:
Aussen-T/F 51 01-10-2010 10:03:02 11.7 C 9.94 g/m*3 11.7 C 0 km/h
52 01-10-2010 10:15:02 11.7 C 9.83 g/m*3 11.7 C 0 km/h
53 01-10-2010 10:27:02 11.6 C 9.56 g/m*3 11.6 C 0 km/h
54 01-10-2010 10:39:02 11.7 C 9.52 g/m*3 11.7 C 0 km/h
55 01-10-2010 10:51:02 11.9 C 9.32 g/m*3 11.9 C 0 km/h
56 01-10-2010 11:03:02 12.1 C 9.12 g/m*3 12.1 C 0 km/h
57 01-10-2010 11:15:02 12.2 C 8.85 g/m*3 12.2 C 0 km/h
58 01-10-2010 11:27:02 12.5 C 8.91 g/m*3 12.5 C 0 km/h
59 01-10-2010 11:39:02 12.5 C 8.69 g/m*3 12.5 C 0 km/h
60 01-10-2010 11:51:02 13 C 8.62 g/m*3 13 C 0 km/h
61 01-10-2010 12:03:02 12.8 C 8.51 g/m*3 12.8 C 0 km/h
62 01-10-2010 12:15:02 12.8 C 8.62 g/m*3 12.8 C 0 km/h
63 01-10-2010 12:27:02 12.7 C 8.46 g/m*3 12.7 C 0 km/h
64 01-10-2010 12:39:02 12.4 C 8.41 g/m*3 12.4 C 0 km/h
65 01-10-2010 12:51:02 12.7 C 8.46 g/m*3 12.7 C 0 km/h
66 01-10-2010 13:03:01 12.8 C 8.4 g/m*3 12.8 C 0 km/h
67 01-10-2010 13:15:02 13.3 C 8.32 g/m*3 13.3 C 0 km/h
68 01-10-2010 13:27:02 13.4 C 8.14 g/m*3 13.4 C 0 km/h
69 01-10-2010 13:39:01 13.1 C 7.76 g/m*3 13.1 C 0 km/h
70 01-10-2010 13:51:02 13.3 C 7.97 g/m*3 13.3 C 0 km/h
71 01-10-2010 14:03:01 13.1 C 7.87 g/m*3 13.1 C 0 km/h
72 01-10-2010 14:15:01 13.2 C 8.04 g/m*3 13.2 C 0 km/h
73 01-10-2010 14:27:01 13.3 C 7.86 g/m*3 13.3 C 0 km/h
74 01-10-2010 14:39:02 13.2 C 7.92 g/m*3 13.2 C 0 km/h
75 01-10-2010 14:51:02 13.8 C 7.98 g/m*3 13.8 C 0 km/h
Sensor: Nr:Datum:Temp:Abs-Feuchte:Windchill:Wind:
Aussen-T/F 76 01-10-2010 15:03:02 14.4 C 7.91 g/m*3 14.4 C 0 km/h
77 01-10-2010 15:15:02 15.2 C 7.92 g/m*3 15.2 C 0 km/h
78 01-10-2010 15:27:02 15.3 C 7.7 g/m*3 15.3 C 0 km/h
79 01-10-2010 15:39:02 15.7 C 7.76 g/m*3 15.7 C 0 km/h
80 01-10-2010 15:51:02 15.9 C 7.58 g/m*3 15.9 C 0 km/h
81 01-10-2010 16:03:02 16 C 7.49 g/m*3 16 C 0 km/h
82 01-10-2010 16:15:02 16.2 C 7.17 g/m*3 16.2 C 0 km/h
83 01-10-2010 16:27:02 17.1 C 7.42 g/m*3 17.1 C 0 km/h
84 01-10-2010 16:39:02 17.2 C 7.91 g/m*3 17.2 C 0 km/h
85 01-10-2010 16:51:02 17.2 C 8.05 g/m*3 17.2 C 0 km/h
86 01-10-2010 17:03:02 17.5 C 7.9 g/m*3 17.5 C 0 km/h
87 01-10-2010 17:15:02 16.6 C 8.19 g/m*3 16.6 C 0 km/h
88 01-10-2010 17:27:02 16 C 8.31 g/m*3 16 C 0 km/h
89 01-10-2010 17:39:02 15.4 C 8.54 g/m*3 15.4 C 0 km/h
90 01-10-2010 17:51:02 15.2 C 8.7 g/m*3 15.2 C 0 km/h
91 01-10-2010 18:03:02 14.8 C 8.74 g/m*3 14.8 C 0 km/h
92 01-10-2010 18:15:02 14.7 C 8.94 g/m*3 14.7 C 0 km/h
93 01-10-2010 18:27:02 14.5 C 8.83 g/m*3 14.5 C 0 km/h
94 01-10-2010 18:39:01 14.1 C 8.74 g/m*3 14.1 C 0 km/h
95 01-10-2010 18:51:02 13.6 C 8.71 g/m*3 13.6 C 0 km/h
96 01-10-2010 19:03:01 12.8 C 8.62 g/m*3 12.8 C 0 km/h
97 01-10-2010 19:15:02 12.5 C 8.58 g/m*3 12.5 C 0 km/h
98 01-10-2010 19:27:02 12.2 C 8.52 g/m*3 12.2 C 0 km/h
99 01-10-2010 19:39:02 11.8 C 8.53 g/m*3 11.8 C 0 km/h
100 01-10-2010 19:51:02 11.6 C 8.52 g/m*3 11.6 C 0 km/h
Sensor: Nr:Datum:Temp:Abs-Feuchte:Windchill:Wind:
Aussen-T/F 101 01-10-2010 20:03:02 11.4 C 8.42 g/m*3 11.4 C 0 km/h
102 01-10-2010 20:15:02 11.3 C 8.47 g/m*3 11.3 C 0 km/h
103 01-10-2010 20:27:02 11.2 C 8.51 g/m*3 11.2 C 0 km/h
104 01-10-2010 20:39:02 11.2 C 8.51 g/m*3 11.2 C 0 km/h
105 01-10-2010 20:51:01 11.2 C 8.62 g/m*3 11.2 C 0 km/h
106 01-10-2010 21:03:02 11.1 C 8.56 g/m*3 11.1 C 0 km/h
107 01-10-2010 21:15:01 11 C 8.51 g/m*3 11 C 0 km/h
108 01-10-2010 21:27:01 10.8 C 8.5 g/m*3 10.8 C 0 km/h
109 01-10-2010 21:39:01 10.7 C 8.55 g/m*3 10.7 C 0 km/h
110 01-10-2010 21:51:01 10.7 C 8.55 g/m*3 10.7 C 0 km/h
111 01-10-2010 22:03:02 10.8 C 8.7 g/m*3 10.8 C 0 km/h
112 01-10-2010 22:15:02 10.9 C 8.75 g/m*3 10.9 C 0 km/h
113 01-10-2010 22:27:02 11 C 8.81 g/m*3 11 C 0 km/h
114 01-10-2010 22:39:01 11.1 C 8.76 g/m*3 11.1 C 0 km/h
115 01-10-2010 22:52:04 11.1 C 8.76 g/m*3 11.1 C 0 km/h
116 01-10-2010 23:04:04 11.1 C 8.76 g/m*3 11.1 C 0 km/h
117 01-10-2010 23:16:04 11.1 C 8.76 g/m*3 11.1 C 0 km/h
118 01-10-2010 23:28:04 11 C 8.71 g/m*3 11 C 0 km/h
119 01-10-2010 23:40:04 11 C 8.71 g/m*3 11 C 0 km/h
120 01-10-2010 23:52:04 11.1 C 8.76 g/m*3 11.1 C 0 km/h
121 02-10-2010 00:04:04 11.2 C 8.82 g/m*3 11.2 C 0 km/h
122 02-10-2010 00:16:04 11.2 C 8.72 g/m*3 11.2 C 0 km/h
123 02-10-2010 00:28:04 11.2 C 8.72 g/m*3 11.2 C 0 km/h
124 02-10-2010 00:40:04 11.1 C 8.66 g/m*3 11.1 C 0 km/h
125 02-10-2010 00:52:04 10.9 C 8.65 g/m*3 10.9 C 0 km/h
Sensor: Nr:Datum:Temp:Abs-Feuchte:Windchill:Wind:
Aussen-T/F 126 02-10-2010 01:04:04 10.9 C 8.65 g/m*3 10.9 C 0 km/h
127 02-10-2010 01:16:04 11 C 8.71 g/m*3 11 C 0 km/h
128 02-10-2010 01:28:05 10.9 C 8.75 g/m*3 10.9 C 0 km/h
129 02-10-2010 01:40:05 11 C 8.81 g/m*3 11 C 0 km/h
130 02-10-2010 01:52:05 10.8 C 8.8 g/m*3 10.8 C 0 km/h
131 02-10-2010 02:04:05 10.8 C 8.8 g/m*3 10.8 C 0 km/h
132 02-10-2010 02:16:05 10.8 C 8.9 g/m*3 10.8 C 0 km/h
133 02-10-2010 02:28:05 11 C 9.01 g/m*3 11 C 0 km/h
134 02-10-2010 02:40:05 11.1 C 9.07 g/m*3 11.1 C 0 km/h
135 02-10-2010 02:52:05 11.1 C 9.07 g/m*3 11.1 C 0 km/h
136 02-10-2010 03:04:05 11.1 C 9.07 g/m*3 11.1 C 0 km/h
137 02-10-2010 03:16:05 11.1 C 9.17 g/m*3 11.1 C 0 km/h
138 02-10-2010 03:28:05 11.1 C 9.17 g/m*3 11.1 C 0 km/h
139 02-10-2010 03:40:05 11.1 C 9.17 g/m*3 11.1 C 0 km/h
140 02-10-2010 03:52:05 11.1 C 9.17 g/m*3 11.1 C 0 km/h
141 02-10-2010 04:04:05 11.1 C 9.27 g/m*3 11.1 C 0 km/h
142 02-10-2010 04:16:05 11.1 C 9.27 g/m*3 11.1 C 0 km/h
143 02-10-2010 04:28:05 11.1 C 9.27 g/m*3 11.1 C 0 km/h
144 02-10-2010 04:40:05 11.1 C 9.27 g/m*3 11.1 C 0 km/h
145 02-10-2010 04:52:05 11 C 9.21 g/m*3 11 C 0 km/h
146 02-10-2010 05:04:05 11 C 9.21 g/m*3 11 C 0 km/h
147 02-10-2010 05:16:05 11 C 9.31 g/m*3 11 C 0 km/h
148 02-10-2010 05:28:05 11 C 9.31 g/m*3 11 C 0 km/h
149 02-10-2010 05:40:05 10.9 C 9.35 g/m*3 10.9 C 0 km/h
150 02-10-2010 05:52:05 11 C 9.31 g/m*3 11 C 0 km/h
Sensor: Nr:Datum:Temp:Abs-Feuchte:Windchill:Wind:
Aussen-T/F 151 02-10-2010 06:04:06 11 C 9.31 g/m*3 11 C 0 km/h
152 02-10-2010 06:16:06 11 C 9.41 g/m*3 11 C 0 km/h
153 02-10-2010 06:28:06 11 C 9.41 g/m*3 11 C 0 km/h
154 02-10-2010 06:40:06 11 C 9.41 g/m*3 11 C 0 km/h
155 02-10-2010 06:52:06 11 C 9.41 g/m*3 11 C 0 km/h
156 02-10-2010 07:04:06 11 C 9.41 g/m*3 11 C 0 km/h
157 02-10-2010 07:16:06 11.1 C 9.47 g/m*3 11.1 C 0 km/h
158 02-10-2010 07:28:06 11.2 C 9.63 g/m*3 11.2 C 0 km/h
159 02-10-2010 07:40:03 11.2 C 9.63 g/m*3 11.2 C 0 km/h
160 02-10-2010 07:52:02 11.2 C 9.63 g/m*3 11.2 C 0 km/h
161 02-10-2010 08:04:02 11.3 C 9.69 g/m*3 11.3 C 0 km/h
162 02-10-2010 08:16:03 11.3 C 9.69 g/m*3 11.3 C 0 km/h
163 02-10-2010 08:28:03 11.4 C 9.75 g/m*3 11.4 C 0 km/h
164 02-10-2010 08:40:02 11.5 C 9.81 g/m*3 11.5 C 0 km/h
165 02-10-2010 08:52:02 11.8 C 10 g/m*3 11.8 C 0 km/h
166 02-10-2010 09:04:02 11.8 C 10 g/m*3 11.8 C 0 km/h
167 02-10-2010 09:16:02 11.8 C 10 g/m*3 11.8 C 0 km/h
168 02-10-2010 09:28:02 12 C 10.12 g/m*3 12 C 0 km/h
169 02-10-2010 09:40:02 12.1 C 10.19 g/m*3 12.1 C 0 km/h
170 02-10-2010 09:52:02 12.3 C 10.32 g/m*3 12.3 C 0 km/h
171 02-10-2010 10:04:02 12.6 C 10.51 g/m*3 12.6 C 0 km/h
172 02-10-2010 10:16:02 13 C 10.66 g/m*3 13 C 0 km/h
173 02-10-2010 10:28:02 13 C 10.66 g/m*3 13 C 0 km/h
174 02-10-2010 10:40:01 13.3 C 10.86 g/m*3 13.3 C 0 km/h
175 02-10-2010 10:52:02 13.8 C 11.08 g/m*3 13.8 C 0 km/h
Sensor: Nr:Datum:Temp:Abs-Feuchte:Windchill:Wind:
Aussen-T/F 176 02-10-2010 11:04:01 14 C 11.1 g/m*3 14 C 0 km/h
177 02-10-2010 11:16:01 14.4 C 11.37 g/m*3 14.4 C 0 km/h
178 02-10-2010 11:28:01 14.4 C 11.37 g/m*3 14.4 C 0 km/h
179 02-10-2010 11:40:02 14.4 C 11.25 g/m*3 14.4 C 0 km/h
180 02-10-2010 11:52:02 14.4 C 11.25 g/m*3 14.4 C 0 km/h
181 02-10-2010 12:04:02 14.5 C 11.32 g/m*3 14.5 C 0 km/h
182 02-10-2010 12:16:02 14.7 C 11.46 g/m*3 14.7 C 0 km/h
183 02-10-2010 12:28:02 15.2 C 11.68 g/m*3 15.2 C 0 km/h
184 02-10-2010 12:40:02 15.4 C 11.69 g/m*3 15.4 C 0 km/h
185 02-10-2010 12:52:02 15.4 C 11.43 g/m*3 15.4 C 0 km/h
186 02-10-2010 13:04:02 15.5 C 11.5 g/m*3 15.5 C 0 km/h
187 02-10-2010 13:16:02 15.6 C 11.57 g/m*3 15.6 C 0 km/h
188 02-10-2010 13:28:02 15.7 C 11.64 g/m*3 15.7 C 0 km/h
189 02-10-2010 13:40:02 15.9 C 11.65 g/m*3 15.9 C 0 km/h
190 02-10-2010 13:52:01 16 C 11.31 g/m*3 16 C 0 km/h
191 02-10-2010 14:04:01 15.7 C 11.24 g/m*3 15.7 C 0 km/h
192 02-10-2010 14:16:02 15.4 C 11.17 g/m*3 15.4 C 0 km/h
193 02-10-2010 14:28:02 15.4 C 11.3 g/m*3 15.4 C 0 km/h
194 02-10-2010 14:40:01 15.7 C 11.64 g/m*3 15.7 C 0 km/h
195 02-10-2010 14:52:03 16 C 11.72 g/m*3 16 C 0 km/h
196 02-10-2010 15:04:02 15.8 C 11.71 g/m*3 15.8 C 0 km/h
197 02-10-2010 15:16:02 15.9 C 11.65 g/m*3 15.9 C 0 km/h
198 02-10-2010 15:28:02 16 C 11.44 g/m*3 16 C 0 km/h
199 02-10-2010 15:40:02 16.2 C 11.31 g/m*3 16.2 C 0 km/h
200 02-10-2010 15:52:02 16.1 C 11.24 g/m*3 16.1 C 0 km/h
Sensor: Nr:Datum:Temp:Abs-Feuchte:Windchill:Wind:
Aussen-T/F 201 02-10-2010 16:04:02 16.2 C 11.31 g/m*3 16.2 C 0 km/h
202 02-10-2010 16:16:02 16.1 C 10.97 g/m*3 16.1 C 0 km/h
203 02-10-2010 16:28:02 16.2 C 11.03 g/m*3 16.2 C 0 km/h
204 02-10-2010 16:40:02 16.4 C 11.17 g/m*3 16.4 C 0 km/h
205 02-10-2010 16:52:02 16.3 C 10.96 g/m*3 16.3 C 0 km/h
206 02-10-2010 17:04:01 16.4 C 11.03 g/m*3 16.4 C 0 km/h
207 02-10-2010 17:16:01 16.3 C 10.82 g/m*3 16.3 C 0 km/h
208 02-10-2010 17:28:01 16.3 C 10.96 g/m*3 16.3 C 0 km/h
209 02-10-2010 17:40:02 16.3 C 10.96 g/m*3 16.3 C 0 km/h
210 02-10-2010 17:52:02 16.1 C 10.83 g/m*3 16.1 C 0 km/h
211 02-10-2010 18:04:02 15.9 C 10.97 g/m*3 15.9 C 0 km/h
212 02-10-2010 18:16:02 15.6 C 10.91 g/m*3 15.6 C 0 km/h
213 02-10-2010 18:28:02 15.3 C 10.84 g/m*3 15.3 C 0 km/h
214 02-10-2010 18:40:02 15.2 C 10.9 g/m*3 15.2 C 0 km/h
215 02-10-2010 18:52:02 15.1 C 10.97 g/m*3 15.1 C 0 km/h
216 02-10-2010 19:04:02 15 C 10.9 g/m*3 15 C 0 km/h
217 02-10-2010 19:16:02 15 C 10.9 g/m*3 15 C 0 km/h
218 02-10-2010 19:28:02 15 C 10.9 g/m*3 15 C 0 km/h
219 02-10-2010 19:40:02 14.9 C 10.96 g/m*3 14.9 C 0 km/h
220 02-10-2010 19:52:01 14.8 C 11.02 g/m*3 14.8 C 0 km/h
221 02-10-2010 20:04:01 14.8 C 11.02 g/m*3 14.8 C 0 km/h
222 02-10-2010 20:16:02 14.9 C 11.22 g/m*3 14.9 C 0 km/h
223 02-10-2010 20:28:02 14.9 C 11.22 g/m*3 14.9 C 0 km/h
224 02-10-2010 20:40:01 14.8 C 11.02 g/m*3 14.8 C 0 km/h
225 02-10-2010 20:52:01 14.6 C 11.01 g/m*3 14.6 C 0 km/h
Sensor: Nr:Datum:Temp:Abs-Feuchte:Windchill:Wind:
Aussen-T/F 226 02-10-2010 21:04:01 14.6 C 11.01 g/m*3 14.6 C 0 km/h
227 02-10-2010 21:16:02 14.5 C 10.94 g/m*3 14.5 C 0 km/h
228 02-10-2010 21:28:02 14.5 C 11.07 g/m*3 14.5 C 0 km/h
229 02-10-2010 21:40:01 14.5 C 11.07 g/m*3 14.5 C 0 km/h
230 02-10-2010 21:53:02 14.4 C 11 g/m*3 14.4 C 0 km/h
231 02-10-2010 22:05:02 14.4 C 11 g/m*3 14.4 C 0 km/h
232 02-10-2010 22:17:02 14.4 C 11.13 g/m*3 14.4 C 0 km/h
233 02-10-2010 22:29:02 14.4 C 11.13 g/m*3 14.4 C 0 km/h
234 02-10-2010 22:41:02 14.5 C 11.19 g/m*3 14.5 C 0 km/h
235 02-10-2010 22:53:02 14.7 C 11.33 g/m*3 14.7 C 0 km/h
236 02-10-2010 23:05:02 14.7 C 11.33 g/m*3 14.7 C 0 km/h
237 02-10-2010 23:17:02 14.6 C 11.14 g/m*3 14.6 C 0 km/h
238 02-10-2010 23:29:03 14.5 C 11.07 g/m*3 14.5 C 0 km/h
239 02-10-2010 23:41:03 14.5 C 11.07 g/m*3 14.5 C 0 km/h
240 02-10-2010 23:53:03 14.5 C 11.07 g/m*3 14.5 C 0 km/h
241 03-10-2010 00:05:03 14.6 C 11.14 g/m*3 14.6 C 0 km/h
242 03-10-2010 00:17:03 14.4 C 11 g/m*3 14.4 C 0 km/h
243 03-10-2010 00:29:03 14.3 C 10.93 g/m*3 14.3 C 0 km/h
244 03-10-2010 00:41:03 14.4 C 11.13 g/m*3 14.4 C 0 km/h
245 03-10-2010 00:53:03 14.5 C 11.19 g/m*3 14.5 C 0 km/h
246 03-10-2010 01:05:03 14.5 C 11.07 g/m*3 14.5 C 0 km/h
247 03-10-2010 01:17:03 14.6 C 10.89 g/m*3 14.6 C 0 km/h
248 03-10-2010 01:29:03 14.7 C 10.58 g/m*3 14.7 C 0 km/h
249 03-10-2010 01:41:03 14.8 C 10.51 g/m*3 14.8 C 0 km/h
250 03-10-2010 01:53:03 14.9 C 10.45 g/m*3 14.9 C 0 km/h
Sensor: Nr:Datum:Temp:Abs-Feuchte:Windchill:Wind:
Aussen-T/F 251 03-10-2010 02:05:03 15 C 10.26 g/m*3 15 C 0 km/h
252 03-10-2010 02:17:03 14.8 C 10.39 g/m*3 14.8 C 0 km/h
253 03-10-2010 02:29:03 14.6 C 10.39 g/m*3 14.6 C 0 km/h
254 03-10-2010 02:41:03 14.4 C 10.26 g/m*3 14.4 C 0 km/h
255 03-10-2010 02:53:03 14.1 C 10.32 g/m*3 14.1 C 0 km/h
256 03-10-2010 03:05:03 14 C 10.37 g/m*3 14 C 0 km/h
257 03-10-2010 03:17:03 13.8 C 10.48 g/m*3 13.8 C 0 km/h
258 03-10-2010 03:29:04 13.8 C 10.6 g/m*3 13.8 C 0 km/h
259 03-10-2010 03:41:04 13.9 C 10.67 g/m*3 13.9 C 0 km/h
260 03-10-2010 03:53:04 14.1 C 10.8 g/m*3 14.1 C 0 km/h
261 03-10-2010 04:05:04 14 C 10.74 g/m*3 14 C 0 km/h
262 03-10-2010 04:17:04 14.1 C 10.68 g/m*3 14.1 C 0 km/h
263 03-10-2010 04:29:04 14 C 10.61 g/m*3 14 C 0 km/h
264 03-10-2010 04:41:04 14 C 10.49 g/m*3 14 C 0 km/h
265 03-10-2010 04:53:04 14.3 C 10.57 g/m*3 14.3 C 0 km/h
266 03-10-2010 05:05:04 14.3 C 10.44 g/m*3 14.3 C 0 km/h
267 03-10-2010 05:17:04 14.4 C 10.38 g/m*3 14.4 C 0 km/h
268 03-10-2010 05:29:04 14.4 C 10.38 g/m*3 14.4 C 0 km/h
269 03-10-2010 05:41:04 14.2 C 10.26 g/m*3 14.2 C 0 km/h
270 03-10-2010 05:53:04 14 C 10.25 g/m*3 14 C 0 km/h
271 03-10-2010 06:05:04 13.8 C 10.37 g/m*3 13.8 C 0 km/h
272 03-10-2010 06:17:04 13.5 C 10.18 g/m*3 13.5 C 0 km/h
273 03-10-2010 06:29:04 13.4 C 10.23 g/m*3 13.4 C 0 km/h
274 03-10-2010 06:41:04 13.3 C 10.17 g/m*3 13.3 C 0 km/h
275 03-10-2010 06:53:04 13.3 C 10.28 g/m*3 13.3 C 0 km/h
Sensor: Nr:Datum:Temp:Abs-Feuchte:Windchill:Wind:
Aussen-T/F 276 03-10-2010 07:05:04 13.3 C 10.28 g/m*3 13.3 C 0 km/h
277 03-10-2010 07:17:04 13.4 C 10.46 g/m*3 13.4 C 0 km/h
278 03-10-2010 07:29:04 13.4 C 10.46 g/m*3 13.4 C 0 km/h
279 03-10-2010 07:41:05 13.5 C 10.53 g/m*3 13.5 C 0 km/h
280 03-10-2010 07:53:02 13.5 C 10.41 g/m*3 13.5 C 0 km/h
281 03-10-2010 08:05:01 13.7 C 10.42 g/m*3 13.7 C 0 km/h
282 03-10-2010 08:17:02 13.9 C 10.43 g/m*3 13.9 C 0 km/h
283 03-10-2010 08:29:02 13.9 C 10.43 g/m*3 13.9 C 0 km/h
284 03-10-2010 08:41:01 14.1 C 10.44 g/m*3 14.1 C 0 km/h
285 03-10-2010 08:53:03 14.3 C 10.32 g/m*3 14.3 C 0 km/h
286 03-10-2010 09:05:02 14.8 C 10.26 g/m*3 14.8 C 0 km/h
287 03-10-2010 09:17:02 15 C 10 g/m*3 15 C 0 km/h
288 03-10-2010 09:29:03 15.1 C 9.93 g/m*3 15.1 C 0 km/h
289 03-10-2010 09:41:02 15.2 C 10.12 g/m*3 15.2 C 0 km/h
290 03-10-2010 09:53:02 15.5 C 10.05 g/m*3 15.5 C 0 km/h
291 03-10-2010 10:05:02 16.2 C 10.2 g/m*3 16.2 C 0 km/h
292 03-10-2010 10:17:02 16.9 C 9.92 g/m*3 16.9 C 0 km/h
293 03-10-2010 10:29:03 17 C 9.69 g/m*3 17 C 0 km/h
294 03-10-2010 10:41:01 17 C 9.84 g/m*3 17 C 0 km/h
295 03-10-2010 10:53:02 16.8 C 9.87 g/m*3 16.8 C 0 km/h
296 03-10-2010 11:05:01 17.2 C 9.81 g/m*3 17.2 C 0 km/h
297 03-10-2010 11:17:02 17.6 C 10.35 g/m*3 17.6 C 0 km/h
298 03-10-2010 11:29:02 17.9 C 10.23 g/m*3 17.9 C 0 km/h
299 03-10-2010 11:41:02 18.5 C 9.97 g/m*3 18.5 C 0 km/h
300 03-10-2010 11:53:02 19.5 C 10.24 g/m*3 19.5 C 0 km/h
Sensor: Nr:Datum:Temp:Abs-Feuchte:Windchill:Wind:
Aussen-T/F 301 03-10-2010 12:05:03 19.7 C 9.85 g/m*3 19.7 C 0 km/h
302 03-10-2010 12:17:02 19.7 C 10.02 g/m*3 19.7 C 0 km/h
303 03-10-2010 12:29:02 19.3 C 9.45 g/m*3 19.3 C 0 km/h
304 03-10-2010 12:41:02 19.7 C 9.68 g/m*3 19.7 C 0 km/h
305 03-10-2010 12:53:01 20 C 9.68 g/m*3 20 C 0 km/h
306 03-10-2010 13:05:02 20.7 C 9.9 g/m*3 20.7 C 0 km/h
307 03-10-2010 13:17:01 21.1 C 9.58 g/m*3 21.1 C 0 km/h
308 03-10-2010 13:29:01 21.5 C 9.62 g/m*3 21.5 C 0 km/h
309 03-10-2010 13:41:01 21.7 C 8.97 g/m*3 21.7 C 0 km/h
310 03-10-2010 13:53:01 21.8 C 9.02 g/m*3 21.8 C 0 km/h
311 03-10-2010 14:05:02 22.2 C 8.83 g/m*3 22.2 C 0 km/h
312 03-10-2010 14:17:01 22.7 C 9.5 g/m*3 22.7 C 0 km/h
313 03-10-2010 14:29:01 23.2 C 9.15 g/m*3 23.2 C 0 km/h
314 03-10-2010 14:41:01 24.4 C 9.12 g/m*3 24.4 C 0 km/h
315 03-10-2010 14:53:01 24.2 C 8.8 g/m*3 24.2 C 0 km/h
316 03-10-2010 15:05:02 24.4 C 8.68 g/m*3 24.4 C 0 km/h
317 03-10-2010 15:17:02 24.4 C 8.68 g/m*3 24.4 C 0 km/h
318 03-10-2010 15:29:02 24.5 C 8.5 g/m*3 24.5 C 0 km/h
319 03-10-2010 15:41:01 24.9 C 8.7 g/m*3 24.9 C 0 km/h
320 03-10-2010 15:53:02 25.4 C 8.48 g/m*3 25.4 C 0 km/h
321 03-10-2010 16:05:01 24.6 C 8.33 g/m*3 24.6 C 0 km/h
322 03-10-2010 16:17:02 24.7 C 8.37 g/m*3 24.7 C 0 km/h
323 03-10-2010 16:29:02 25.1 C 8.57 g/m*3 25.1 C 0 km/h
324 03-10-2010 16:41:01 25.4 C 8.95 g/m*3 25.4 C 0 km/h
325 03-10-2010 16:53:03 25.8 C 9.15 g/m*3 25.8 C 0 km/h
Sensor: Nr:Datum:Temp:Abs-Feuchte:Windchill:Wind:
Aussen-T/F 326 03-10-2010 17:05:02 26.1 C 9.3 g/m*3 26.1 C 0 km/h
327 03-10-2010 17:17:02 25.6 C 9.05 g/m*3 25.6 C 0 km/h
328 03-10-2010 17:29:02 25.6 C 9.52 g/m*3 25.6 C 0 km/h
329 03-10-2010 17:41:03 24.4 C 9.35 g/m*3 24.4 C 0 km/h
330 03-10-2010 17:53:02 24.4 C 9.57 g/m*3 24.4 C 0 km/h
331 03-10-2010 18:05:01 23.6 C 10.21 g/m*3 23.6 C 0 km/h
332 03-10-2010 18:17:02 22.5 C 10.39 g/m*3 22.5 C 0 km/h
333 03-10-2010 18:29:02 21.4 C 10.5 g/m*3 21.4 C 0 km/h
334 03-10-2010 18:41:02 20.4 C 10.61 g/m*3 20.4 C 0 km/h
335 03-10-2010 18:53:02 19.8 C 10.76 g/m*3 19.8 C 0 km/h
336 03-10-2010 19:05:03 19.3 C 10.95 g/m*3 19.3 C 0 km/h
337 03-10-2010 19:17:02 19 C 10.76 g/m*3 19 C 0 km/h
338 03-10-2010 19:29:02 18.9 C 10.85 g/m*3 18.9 C 0 km/h
339 03-10-2010 19:41:02 18.4 C 10.85 g/m*3 18.4 C 0 km/h
340 03-10-2010 19:53:01 18.3 C 10.79 g/m*3 18.3 C 0 km/h
341 03-10-2010 20:05:02 18.1 C 10.82 g/m*3 18.1 C 0 km/h
342 03-10-2010 20:17:01 18.5 C 10.92 g/m*3 18.5 C 0 km/h
343 03-10-2010 20:29:01 18.4 C 10.85 g/m*3 18.4 C 0 km/h
344 03-10-2010 20:41:02 18.4 C 10.85 g/m*3 18.4 C 0 km/h
345 03-10-2010 20:53:01 18.3 C 10.94 g/m*3 18.3 C 0 km/h
346 03-10-2010 21:05:02 18.3 C 10.94 g/m*3 18.3 C 0 km/h
347 03-10-2010 21:17:02 18.1 C 10.97 g/m*3 18.1 C 0 km/h
348 03-10-2010 21:29:02 17.9 C 11.15 g/m*3 17.9 C 0 km/h
349 03-10-2010 21:41:02 17.8 C 11.08 g/m*3 17.8 C 0 km/h
350 03-10-2010 21:53:01 17.7 C 11.01 g/m*3 17.7 C 0 km/h
Sensor: Nr:Datum:Temp:Abs-Feuchte:Windchill:Wind:
Aussen-T/F 351 03-10-2010 22:05:01 17.6 C 11.1 g/m*3 17.6 C 0 km/h
352 03-10-2010 22:17:02 17.5 C 11.03 g/m*3 17.5 C 0 km/h
353 03-10-2010 22:29:02 17.5 C 10.88 g/m*3 17.5 C 0 km/h
354 03-10-2010 22:41:01 17.6 C 10.8 g/m*3 17.6 C 0 km/h
355 03-10-2010 22:53:02 17.6 C 10.5 g/m*3 17.6 C 0 km/h
356 03-10-2010 23:05:01 17.5 C 10.44 g/m*3 17.5 C 0 km/h
357 03-10-2010 23:18:06 17.6 C 10.5 g/m*3 17.6 C 0 km/h
358 03-10-2010 23:30:07 17.6 C 10.35 g/m*3 17.6 C 0 km/h
359 03-10-2010 23:42:07 17.6 C 10.2 g/m*3 17.6 C 0 km/h
360 03-10-2010 23:54:07 17.5 C 10.14 g/m*3 17.5 C 0 km/h
361 04-10-2010 00:06:07 17.4 C 9.93 g/m*3 17.4 C 0 km/h
362 04-10-2010 00:18:07 17.4 C 9.93 g/m*3 17.4 C 0 km/h
363 04-10-2010 00:30:07 17.2 C 9.81 g/m*3 17.2 C 0 km/h
364 04-10-2010 00:42:07 17.2 C 9.81 g/m*3 17.2 C 0 km/h
365 04-10-2010 00:54:07 17.2 C 9.81 g/m*3 17.2 C 0 km/h
366 04-10-2010 01:06:07 17.2 C 9.81 g/m*3 17.2 C 0 km/h
367 04-10-2010 01:18:07 17.2 C 9.67 g/m*3 17.2 C 0 km/h
368 04-10-2010 01:30:07 17.2 C 9.52 g/m*3 17.2 C 0 km/h
369 04-10-2010 01:42:07 17.2 C 9.52 g/m*3 17.2 C 0 km/h
370 04-10-2010 01:54:07 17.1 C 9.46 g/m*3 17.1 C 0 km/h
371 04-10-2010 02:06:07 17 C 9.55 g/m*3 17 C 0 km/h
372 04-10-2010 02:18:07 16.9 C 9.64 g/m*3 16.9 C 0 km/h
373 04-10-2010 02:30:07 16.8 C 9.72 g/m*3 16.8 C 0 km/h
374 04-10-2010 02:42:07 16.8 C 9.58 g/m*3 16.8 C 0 km/h
375 04-10-2010 02:54:07 16.6 C 9.75 g/m*3 16.6 C 0 km/h
Sensor: Nr:Datum:Temp:Abs-Feuchte:Windchill:Wind:
Aussen-T/F 376 04-10-2010 03:06:07 16.4 C 9.77 g/m*3 16.4 C 0 km/h
377 04-10-2010 03:18:07 15.9 C 10.02 g/m*3 15.9 C 0 km/h
378 04-10-2010 03:30:08 15.6 C 9.97 g/m*3 15.6 C 0 km/h
379 04-10-2010 03:42:08 15.5 C 10.05 g/m*3 15.5 C 0 km/h
380 04-10-2010 03:54:08 15.4 C 9.99 g/m*3 15.4 C 0 km/h
381 04-10-2010 04:06:08 15.3 C 9.92 g/m*3 15.3 C 0 km/h
382 04-10-2010 04:18:08 15.2 C 9.99 g/m*3 15.2 C 0 km/h
383 04-10-2010 04:30:08 15.2 C 9.99 g/m*3 15.2 C 0 km/h
384 04-10-2010 04:42:08 15 C 10 g/m*3 15 C 0 km/h
385 04-10-2010 04:54:08 14.8 C 10.01 g/m*3 14.8 C 0 km/h
386 04-10-2010 05:06:08 14.6 C 10.01 g/m*3 14.6 C 0 km/h
387 04-10-2010 05:18:08 14.4 C 9.89 g/m*3 14.4 C 0 km/h
388 04-10-2010 05:30:08 14.3 C 9.95 g/m*3 14.3 C 0 km/h
389 04-10-2010 05:42:08 14.1 C 9.95 g/m*3 14.1 C 0 km/h
390 04-10-2010 05:54:08 14.1 C 9.95 g/m*3 14.1 C 0 km/h
391 04-10-2010 06:06:08 14.2 C 10.01 g/m*3 14.2 C 0 km/h
392 04-10-2010 06:18:08 13.9 C 10.07 g/m*3 13.9 C 0 km/h
393 04-10-2010 06:30:08 14 C 9.89 g/m*3 14 C 0 km/h
394 04-10-2010 06:42:08 13.8 C 9.89 g/m*3 13.8 C 0 km/h
395 04-10-2010 06:54:08 13.7 C 9.83 g/m*3 13.7 C 0 km/h
396 04-10-2010 07:06:03 13.8 C 10.01 g/m*3 13.8 C 0 km/h
397 04-10-2010 07:18:02 13.7 C 9.83 g/m*3 13.7 C 0 km/h
398 04-10-2010 07:30:02 13.5 C 9.71 g/m*3 13.5 C 0 km/h
399 04-10-2010 07:42:03 13.5 C 9.71 g/m*3 13.5 C 0 km/h
400 04-10-2010 07:54:02 13.6 C 9.89 g/m*3 13.6 C 0 km/h
Sensor: Nr:Datum:Temp:Abs-Feuchte:Windchill:Wind:
Aussen-T/F 401 04-10-2010 08:06:02 13.8 C 9.89 g/m*3 13.8 C 0 km/h
402 04-10-2010 08:18:02 14.1 C 9.95 g/m*3 14.1 C 0 km/h
403 04-10-2010 08:30:02 14.3 C 9.83 g/m*3 14.3 C 0 km/h
404 04-10-2010 08:42:03 14.4 C 9.64 g/m*3 14.4 C 0 km/h
405 04-10-2010 08:54:02 14.7 C 9.69 g/m*3 14.7 C 0 km/h
406 04-10-2010 09:06:02 14.9 C 9.56 g/m*3 14.9 C 0 km/h
407 04-10-2010 09:18:02 15 C 9.23 g/m*3 15 C 0 km/h
408 04-10-2010 09:30:02 15 C 9.1 g/m*3 15 C 0 km/h
409 04-10-2010 09:42:02 15 C 9.1 g/m*3 15 C 0 km/h
410 04-10-2010 09:54:02 15.1 C 9.16 g/m*3 15.1 C 0 km/h
411 04-10-2010 10:06:02 15.2 C 9.09 g/m*3 15.2 C 0 km/h
412 04-10-2010 10:18:02 15.3 C 9.01 g/m*3 15.3 C 0 km/h
413 04-10-2010 10:30:02 15.4 C 9.07 g/m*3 15.4 C 0 km/h
414 04-10-2010 10:42:02 16 C 8.86 g/m*3 16 C 0 km/h
415 04-10-2010 10:54:01 16.4 C 8.79 g/m*3 16.4 C 0 km/h
416 04-10-2010 11:06:02 17.1 C 8.88 g/m*3 17.1 C 0 km/h
417 04-10-2010 11:18:01 17.1 C 8.88 g/m*3 17.1 C 0 km/h
418 04-10-2010 11:30:01 17.6 C 9 g/m*3 17.6 C 0 km/h
419 04-10-2010 11:42:01 18 C 8.91 g/m*3 18 C 0 km/h
420 04-10-2010 11:54:01 18.3 C 8.91 g/m*3 18.3 C 0 km/h
421 04-10-2010 12:06:01 18.5 C 8.86 g/m*3 18.5 C 0 km/h
422 04-10-2010 12:18:02 18 C 8.91 g/m*3 18 C 0 km/h
423 04-10-2010 12:30:02 17.8 C 8.8 g/m*3 17.8 C 0 km/h
424 04-10-2010 12:42:01 17.5 C 8.65 g/m*3 17.5 C 0 km/h
425 04-10-2010 12:54:02 17.4 C 8.6 g/m*3 17.4 C 0 km/h
Sensor: Nr:Datum:Temp:Abs-Feuchte:Windchill:Wind:
Aussen-T/F 426 04-10-2010 13:06:01 17.9 C 8.7 g/m*3 17.9 C 0 km/h
427 04-10-2010 13:18:02 18.3 C 8.6 g/m*3 18.3 C 0 km/h
428 04-10-2010 13:30:02 18.9 C 8.59 g/m*3 18.9 C 0 km/h
429 04-10-2010 13:42:01 19.1 C 8.52 g/m*3 19.1 C 0 km/h
430 04-10-2010 13:54:02 19.4 C 8.68 g/m*3 19.4 C 0 km/h
431 04-10-2010 14:06:02 19.3 C 8.63 g/m*3 19.3 C 0 km/h
432 04-10-2010 14:18:02 19.5 C 8.73 g/m*3 19.5 C 0 km/h
433 04-10-2010 14:30:02 19.7 C 8.66 g/m*3 19.7 C 0 km/h
434 04-10-2010 14:42:02 19.9 C 8.59 g/m*3 19.9 C 0 km/h
435 04-10-2010 14:54:02 20.4 C 9.02 g/m*3 20.4 C 0 km/h
436 04-10-2010 15:06:01 21.2 C 8.9 g/m*3 21.2 C 0 km/h
437 04-10-2010 15:18:02 22.3 C 8.29 g/m*3 22.3 C 0 km/h
438 04-10-2010 15:30:02 22.7 C 8.69 g/m*3 22.7 C 0 km/h
439 04-10-2010 15:42:02 23 C 8.63 g/m*3 23 C 0 km/h
440 04-10-2010 15:54:02 23.3 C 8.57 g/m*3 23.3 C 0 km/h
441 04-10-2010 16:06:02 23.1 C 8.27 g/m*3 23.1 C 0 km/h
442 04-10-2010 16:18:02 23.4 C 8.2 g/m*3 23.4 C 0 km/h
443 04-10-2010 16:30:02 23.9 C 8.44 g/m*3 23.9 C 0 km/h
444 04-10-2010 16:42:02 23.9 C 8 g/m*3 23.9 C 0 km/h
445 04-10-2010 16:54:01 23.9 C 8.22 g/m*3 23.9 C 0 km/h
446 04-10-2010 17:06:02 23.3 C 8.15 g/m*3 23.3 C 0 km/h
447 04-10-2010 17:18:01 22 C 8.54 g/m*3 22 C 0 km/h
448 04-10-2010 17:30:01 20.4 C 9.38 g/m*3 20.4 C 0 km/h
449 04-10-2010 17:42:01 19.5 C 9.73 g/m*3 19.5 C 0 km/h
450 04-10-2010 17:54:01 20.5 C 9.61 g/m*3 20.5 C 0 km/h
Sensor: Nr:Datum:Temp:Abs-Feuchte:Windchill:Wind:
Aussen-T/F 451 04-10-2010 18:06:02 20.2 C 9.44 g/m*3 20.2 C 0 km/h
452 04-10-2010 18:18:02 19.5 C 9.57 g/m*3 19.5 C 0 km/h
453 04-10-2010 18:30:02 18.7 C 9.61 g/m*3 18.7 C 0 km/h
454 04-10-2010 18:42:01 17.8 C 9.71 g/m*3 17.8 C 0 km/h
455 04-10-2010 18:54:01 17.2 C 9.81 g/m*3 17.2 C 0 km/h
456 04-10-2010 19:06:01 16.9 C 10.07 g/m*3 16.9 C 0 km/h
457 04-10-2010 19:18:02 16.8 C 10.15 g/m*3 16.8 C 0 km/h
458 04-10-2010 19:30:02 16.5 C 10.11 g/m*3 16.5 C 0 km/h
459 04-10-2010 19:42:01 16.2 C 10.07 g/m*3 16.2 C 0 km/h
460 04-10-2010 19:54:03 16.2 C 10.07 g/m*3 16.2 C 0 km/h
461 04-10-2010 20:06:02 16.4 C 10.19 g/m*3 16.4 C 0 km/h
462 04-10-2010 20:18:02 16.5 C 10.11 g/m*3 16.5 C 0 km/h
463 04-10-2010 20:30:03 16.4 C 10.05 g/m*3 16.4 C 0 km/h
464 04-10-2010 20:42:02 16.1 C 9.87 g/m*3 16.1 C 0 km/h
465 04-10-2010 20:54:02 15.7 C 9.9 g/m*3 15.7 C 0 km/h
466 04-10-2010 21:06:01 15.6 C 9.97 g/m*3 15.6 C 0 km/h
467 04-10-2010 21:18:02 15.5 C 10.05 g/m*3 15.5 C 0 km/h
468 04-10-2010 21:30:02 15.6 C 9.97 g/m*3 15.6 C 0 km/h
469 04-10-2010 21:42:02 15.4 C 9.85 g/m*3 15.4 C 0 km/h
470 04-10-2010 21:54:01 15 C 9.87 g/m*3 15 C 0 km/h
471 04-10-2010 22:06:02 14.8 C 9.88 g/m*3 14.8 C 0 km/h
472 04-10-2010 22:19:04 14.7 C 9.95 g/m*3 14.7 C 0 km/h
473 04-10-2010 22:31:04 14.5 C 9.95 g/m*3 14.5 C 0 km/h
474 04-10-2010 22:43:04 14.5 C 9.95 g/m*3 14.5 C 0 km/h
475 04-10-2010 22:55:04 14.3 C 9.83 g/m*3 14.3 C 0 km/h
Sensor: Nr:Datum:Temp:Abs-Feuchte:Windchill:Wind:
Aussen-T/F 476 04-10-2010 23:07:04 14.2 C 9.89 g/m*3 14.2 C 0 km/h
477 04-10-2010 23:19:04 14.2 C 9.89 g/m*3 14.2 C 0 km/h
478 04-10-2010 23:31:04 14.3 C 9.95 g/m*3 14.3 C 0 km/h
479 04-10-2010 23:43:05 14.2 C 9.89 g/m*3 14.2 C 0 km/h
480 04-10-2010 23:55:05 14.1 C 9.95 g/m*3 14.1 C 0 km/h
481 05-10-2010 00:07:05 14.1 C 9.95 g/m*3 14.1 C 0 km/h
482 05-10-2010 00:19:05 14.1 C 9.95 g/m*3 14.1 C 0 km/h
483 05-10-2010 00:31:05 14.2 C 10.01 g/m*3 14.2 C 0 km/h
484 05-10-2010 00:43:05 14.3 C 10.07 g/m*3 14.3 C 0 km/h
485 05-10-2010 00:55:05 14.3 C 10.07 g/m*3 14.3 C 0 km/h
486 05-10-2010 01:07:05 14.2 C 10.01 g/m*3 14.2 C 0 km/h
487 05-10-2010 01:19:05 14.1 C 9.95 g/m*3 14.1 C 0 km/h
488 05-10-2010 01:31:05 13.8 C 9.77 g/m*3 13.8 C 0 km/h
489 05-10-2010 01:43:05 13.8 C 9.89 g/m*3 13.8 C 0 km/h
490 05-10-2010 01:55:05 13.8 C 9.89 g/m*3 13.8 C 0 km/h
491 05-10-2010 02:07:05 13.4 C 9.65 g/m*3 13.4 C 0 km/h
492 05-10-2010 02:19:05 13.5 C 9.71 g/m*3 13.5 C 0 km/h
493 05-10-2010 02:31:05 13.5 C 9.83 g/m*3 13.5 C 0 km/h
494 05-10-2010 02:43:05 13.6 C 10 g/m*3 13.6 C 0 km/h
495 05-10-2010 02:55:05 13.6 C 10 g/m*3 13.6 C 0 km/h
496 05-10-2010 03:07:05 13.6 C 10 g/m*3 13.6 C 0 km/h
497 05-10-2010 03:19:05 13.6 C 10 g/m*3 13.6 C 0 km/h
498 05-10-2010 03:31:05 13.7 C 10.07 g/m*3 13.7 C 0 km/h
499 05-10-2010 03:43:05 13.6 C 10 g/m*3 13.6 C 0 km/h
500 05-10-2010 03:55:06 13.5 C 9.94 g/m*3 13.5 C 0 km/h
Sensor: Nr:Datum:Temp:Abs-Feuchte:Windchill:Wind:
Aussen-T/F 501 05-10-2010 04:07:06 13.5 C 9.94 g/m*3 13.5 C 0 km/h
502 05-10-2010 04:19:06 13.6 C 10.12 g/m*3 13.6 C 0 km/h
503 05-10-2010 04:31:06 13.6 C 10.12 g/m*3 13.6 C 0 km/h
504 05-10-2010 04:43:06 13.6 C 10.12 g/m*3 13.6 C 0 km/h
505 05-10-2010 04:55:06 13.7 C 10.18 g/m*3 13.7 C 0 km/h
506 05-10-2010 05:07:06 13.7 C 10.18 g/m*3 13.7 C 0 km/h
507 05-10-2010 05:19:06 13.7 C 10.18 g/m*3 13.7 C 0 km/h
508 05-10-2010 05:31:06 13.6 C 10.12 g/m*3 13.6 C 0 km/h
509 05-10-2010 05:43:06 13.5 C 10.06 g/m*3 13.5 C 0 km/h
510 05-10-2010 05:55:06 13.5 C 10.18 g/m*3 13.5 C 0 km/h
511 05-10-2010 06:07:06 13.4 C 10.23 g/m*3 13.4 C 0 km/h
512 05-10-2010 06:19:06 13.4 C 10.35 g/m*3 13.4 C 0 km/h
513 05-10-2010 06:31:06 13.4 C 10.35 g/m*3 13.4 C 0 km/h
514 05-10-2010 06:43:06 13.4 C 10.46 g/m*3 13.4 C 0 km/h
515 05-10-2010 06:55:06 13.5 C 10.53 g/m*3 13.5 C 0 km/h
516 05-10-2010 07:07:01 13.4 C 10.46 g/m*3 13.4 C 0 km/h
517 05-10-2010 07:19:02 13.4 C 10.58 g/m*3 13.4 C 0 km/h
518 05-10-2010 07:31:02 13.4 C 10.58 g/m*3 13.4 C 0 km/h
519 05-10-2010 07:43:02 13.4 C 10.58 g/m*3 13.4 C 0 km/h
520 05-10-2010 07:55:02 13.4 C 10.58 g/m*3 13.4 C 0 km/h
521 05-10-2010 08:07:02 13.4 C 10.58 g/m*3 13.4 C 0 km/h
522 05-10-2010 08:19:02 13.2 C 10.45 g/m*3 13.2 C 0 km/h
523 05-10-2010 08:31:02 13.1 C 10.38 g/m*3 13.1 C 0 km/h
524 05-10-2010 08:43:02 13 C 10.32 g/m*3 13 C 0 km/h
525 05-10-2010 08:55:02 13 C 10.32 g/m*3 13 C 0 km/h
Sensor: Nr:Datum:Temp:Abs-Feuchte:Windchill:Wind:
Aussen-T/F 526 05-10-2010 09:07:02 13 C 10.43 g/m*3 13 C 0 km/h
527 05-10-2010 09:19:02 13.2 C 10.56 g/m*3 13.2 C 0 km/h
528 05-10-2010 09:31:01 13.4 C 10.69 g/m*3 13.4 C 0 km/h
529 05-10-2010 09:43:01 13.4 C 10.81 g/m*3 13.4 C 0 km/h
530 05-10-2010 09:55:02 13.5 C 10.88 g/m*3 13.5 C 0 km/h
531 05-10-2010 10:07:01 13.8 C 11.08 g/m*3 13.8 C 0 km/h
532 05-10-2010 10:19:02 14.3 C 11.43 g/m*3 14.3 C 0 km/h
533 05-10-2010 10:31:02 14.7 C 11.83 g/m*3 14.7 C 0 km/h
534 05-10-2010 10:43:02 15.2 C 12.07 g/m*3 15.2 C 0 km/h
535 05-10-2010 10:55:02 16 C 12.67 g/m*3 16 C 0 km/h
536 05-10-2010 11:07:02 17.2 C 13.62 g/m*3 17.2 C 0 km/h
537 05-10-2010 11:19:02 17.3 C 13.7 g/m*3 17.3 C 0 km/h
538 05-10-2010 11:31:02 17.4 C 13.34 g/m*3 17.4 C 0 km/h
539 05-10-2010 11:43:02 17.3 C 12.37 g/m*3 17.3 C 0 km/h
540 05-10-2010 11:55:01 18.2 C 11.97 g/m*3 18.2 C 0 km/h
541 05-10-2010 12:07:02 18.3 C 11.73 g/m*3 18.3 C 0 km/h
542 05-10-2010 12:19:02 17.9 C 11.45 g/m*3 17.9 C 0 km/h
543 05-10-2010 12:31:01 18 C 11.37 g/m*3 18 C 0 km/h
544 05-10-2010 12:43:01 17.9 C 11.3 g/m*3 17.9 C 0 km/h
545 05-10-2010 12:55:02 18.4 C 11.32 g/m*3 18.4 C 0 km/h
546 05-10-2010 13:07:01 18.7 C 11.37 g/m*3 18.7 C 0 km/h
547 05-10-2010 13:19:02 18.9 C 11.18 g/m*3 18.9 C 0 km/h
548 05-10-2010 13:31:01 19 C 11.08 g/m*3 19 C 0 km/h
549 05-10-2010 13:43:01 19.3 C 11.44 g/m*3 19.3 C 0 km/h
550 05-10-2010 13:55:02 20 C 11.06 g/m*3 20 C 0 km/h
Sensor: Nr:Datum:Temp:Abs-Feuchte:Windchill:Wind:
Aussen-T/F 551 05-10-2010 14:07:02 19.9 C 10.31 g/m*3 19.9 C 0 km/h
552 05-10-2010 14:19:02 19.5 C 10.57 g/m*3 19.5 C 0 km/h
553 05-10-2010 14:31:02 19.6 C 10.8 g/m*3 19.6 C 0 km/h
554 05-10-2010 14:43:02 18.7 C 11.05 g/m*3 18.7 C 0 km/h
555 05-10-2010 14:55:02 18.6 C 11.94 g/m*3 18.6 C 0 km/h
556 05-10-2010 15:07:01 19 C 12.22 g/m*3 19 C 0 km/h
557 05-10-2010 15:19:02 17.9 C 12.06 g/m*3 17.9 C 0 km/h
558 05-10-2010 15:31:02 18.3 C 12.51 g/m*3 18.3 C 0 km/h
559 05-10-2010 15:43:02 19.3 C 13.27 g/m*3 19.3 C 0 km/h
560 05-10-2010 15:55:01 19.5 C 13.09 g/m*3 19.5 C 0 km/h
561 05-10-2010 16:07:02 19 C 12.55 g/m*3 19 C 0 km/h
562 05-10-2010 16:19:01 18.7 C 12.65 g/m*3 18.7 C 0 km/h
563 05-10-2010 16:31:02 18.4 C 12.43 g/m*3 18.4 C 0 km/h
564 05-10-2010 16:43:02 18.3 C 12.51 g/m*3 18.3 C 0 km/h
565 05-10-2010 16:55:02 18.1 C 12.21 g/m*3 18.1 C 0 km/h
566 05-10-2010 17:07:02 17.7 C 11.92 g/m*3 17.7 C 0 km/h
567 05-10-2010 17:19:01 17.2 C 11.42 g/m*3 17.2 C 0 km/h
568 05-10-2010 17:31:02 16.8 C 11.58 g/m*3 16.8 C 0 km/h
569 05-10-2010 17:43:02 16.8 C 11.72 g/m*3 16.8 C 0 km/h
570 05-10-2010 17:55:02 17 C 11.72 g/m*3 17 C 0 km/h
571 05-10-2010 18:07:02 17.1 C 11.65 g/m*3 17.1 C 0 km/h
572 05-10-2010 18:19:02 17.1 C 11.65 g/m*3 17.1 C 0 km/h
573 05-10-2010 18:31:02 17.1 C 11.35 g/m*3 17.1 C 0 km/h
574 05-10-2010 18:43:02 17 C 11.29 g/m*3 17 C 0 km/h
575 05-10-2010 18:55:02 16.8 C 11.29 g/m*3 16.8 C 0 km/h
Sensor: Nr:Datum:Temp:Abs-Feuchte:Windchill:Wind:
Aussen-T/F 576 05-10-2010 19:07:02 16.6 C 11.3 g/m*3 16.6 C 0 km/h
577 05-10-2010 19:19:03 16.5 C 11.23 g/m*3 16.5 C 0 km/h
578 05-10-2010 19:31:02 16.5 C 11.37 g/m*3 16.5 C 0 km/h
579 05-10-2010 19:43:02 17.3 C 11.64 g/m*3 17.3 C 0 km/h
580 05-10-2010 19:55:02 16.4 C 11.03 g/m*3 16.4 C 0 km/h
581 05-10-2010 20:07:02 16.4 C 11.03 g/m*3 16.4 C 0 km/h
582 05-10-2010 20:19:02 16.4 C 11.03 g/m*3 16.4 C 0 km/h
583 05-10-2010 20:31:02 16.4 C 11.03 g/m*3 16.4 C 0 km/h
584 05-10-2010 20:43:02 16.3 C 10.96 g/m*3 16.3 C 0 km/h
585 05-10-2010 20:55:02 16.3 C 10.68 g/m*3 16.3 C 0 km/h
586 05-10-2010 21:07:02 16.1 C 10.55 g/m*3 16.1 C 0 km/h
587 05-10-2010 21:19:02 16 C 10.35 g/m*3 16 C 0 km/h
588 05-10-2010 21:31:01 15.6 C 10.24 g/m*3 15.6 C 0 km/h
589 05-10-2010 21:43:01 15.4 C 10.12 g/m*3 15.4 C 0 km/h
590 05-10-2010 21:55:02 15.3 C 10.06 g/m*3 15.3 C 0 km/h
591 05-10-2010 22:07:01 15.2 C 9.99 g/m*3 15.2 C 0 km/h
592 05-10-2010 22:19:02 15.3 C 9.92 g/m*3 15.3 C 0 km/h
593 05-10-2010 22:31:01 15.4 C 9.99 g/m*3 15.4 C 0 km/h
594 05-10-2010 22:43:01 15.2 C 9.99 g/m*3 15.2 C 0 km/h
595 05-10-2010 22:55:02 15.4 C 9.99 g/m*3 15.4 C 0 km/h
596 05-10-2010 23:07:01 15.6 C 9.97 g/m*3 15.6 C 0 km/h
597 05-10-2010 23:19:02 15.6 C 9.97 g/m*3 15.6 C 0 km/h
598 05-10-2010 23:31:01 15.6 C 9.97 g/m*3 15.6 C 0 km/h
599 05-10-2010 23:43:01 15.6 C 9.97 g/m*3 15.6 C 0 km/h
600 05-10-2010 23:55:02 15.6 C 9.97 g/m*3 15.6 C 0 km/h

Legende:
   Min
   Max


Maximal/Minimal-Werte vom 01.10.2010 - 05.10.2010

Sensor Min Max Avg
Temp
(Aussen-T/F)
10.2 °C
01-10-2010  08:27:02
26.1 °C
03-10-2010  17:05:02
15.24 °C
Abs-Feuchte
(Aussen-T/F)
7.17 g/m*3
01-10-2010  16:15:02
13.7 g/m*3
05-10-2010  11:19:02
9.96 g/m*3
Windchill
(Aussen-T/F)
10.2 C
01-10-2010  08:27:02
26.1 C
03-10-2010  17:05:02
15.21 C

Die Daten stammen von einer Davis Vantage Pro 2 Wetter-Station und werden unter Linux mit der Software wview2wettercgi und aufbereitet. Alle Angaben erfolgen ohne Gewähr für ihre Vollständigkeit oder Richtigkeit.
Kontakt: Rainer Krienke krienke@uni-koblenz.de . Meine Webseiten an der Uni Koblenz oder privat.
Version: $Revision: 0.78 $